#timestamp,LO_Frequency,Hit,StdDev 
1545444015.1,286046999.0,N
1545444016.0,286046999.0,N
1545444035.8,286046999.0,N
1545444055.6,286046996.5,N
1545444075.5,286046998.3,N
1545444095.3,286046998.2,N
1545444115.2,286047000.4,N
1545444135.9,286047000.6,N
1545444155.7,286046999.8,N
1545444175.6,286047000.1,N
1545444195.4,286047000.0,N
1545444215.3,286047000.2,N
1545444235.1,286047001.1,N
1545444236.0,286047001.1,N
1545444255.8,286046998.2,N
1545444275.7,286046998.4,N
1545444295.5,286046999.2,N
1545444315.3,286046999.6,N
1545444335.2,286046999.6,N
1545444355.0,286046997.2,N
1545444355.9,286046997.2,N
1545444375.8,286046998.8,N
1545444395.6,286047000.6,N
1545444415.4,286047001.0,N
1545444435.3,286047000.1,N
1545444455.1,286047000.5,N
1545444475.9,286047000.8,N
1545444495.7,286047001.2,N
1545444515.5,286047000.6,N
1545444535.4,286047001.1,N
1545444555.2,286047001.0,N
1545444575.1,286047000.4,N
1545444576.0,286047000.4,N
1545444595.8,286046999.9,N
1545444615.6,286046999.9,N
1545444635.5,286046999.8,N
1545444655.3,286046999.8,N
1545444675.7,286047004.2,Y
1545444695.5,286047003.2,P
1545444715.3,286047004.3,N
1545444735.2,286047001.8,N
1545444755.0,286047004.4,N
1545444786.0,286047002.3,E
1545444795.9,286047000.2,N
1545444815.7,286046998.1,P
1545444835.5,286046999.0,N
1545444855.4,286046999.5,N
1545444875.2,286046997.2,Y
1545444895.1,286046998.6,P
1545444896.0,286046998.6,P
1545444915.8,286046998.2,P
1545444935.3,286047001.2,Y
1545444955.1,286047000.2,P
1545444975.8,286046999.8,N
1545444995.7,286047000.1,N
1545445015.5,286047000.0,N
1545445035.4,286047000.4,N
1545445055.2,286047000.9,N
1545445075.0,286046999.8,N
1545445075.9,286046999.8,N
1545445095.8,286047000.0,N
1545445115.6,286047000.2,N
1545445135.5,286047002.3,Y
1545445155.3,286047002.4,P
1545445175.1,286047000.2,N
1545445195.9,286047000.4,N
1545445215.7,286047000.1,N
1545445235.5,286047000.4,N
1545445255.4,286047001.1,N
1545445275.2,286046998.5,N
1545445295.1,286047000.6,N
1545445296.0,286047000.6,N
1545445315.8,286047000.2,N
1545445335.6,286047001.0,N
1545445355.5,286047001.0,N
1545445375.3,286047000.1,N
1545445395.1,286047002.4,N
1545445415.9,286047002.3,N
1545445435.7,286046999.8,N
1545445455.6,286046999.8,N
1545445475.4,286046999.9,N
1545445495.2,286047001.2,N
1545445515.1,286047000.9,N
1545445516.0,286047000.9,N
1545445535.8,286047000.6,N
1545445555.7,286047000.5,N
1545445575.5,286047002.4,N
1545445595.3,286047000.9,N
1545445615.2,286046998.8,N
1545445635.9,286046999.2,N
1545445655.7,286046999.0,N
1545445675.6,286046998.1,N
1545445695.4,286047001.1,N
1545445715.3,286046998.7,N
1545445735.0,286046998.9,N
1545445735.9,286046998.9,N
1545445755.8,286046999.4,N
1545445775.6,286046999.6,N
1545445795.5,286046999.5,N
1545445815.3,286046997.0,N
1545445835.1,286046997.9,N
1545445855.9,286046995.2,Y
1545445875.7,286046997.4,P
1545445895.5,286046997.5,N
1545445915.4,286046995.1,P
1545445935.2,286046994.9,N
1545445955.1,286046995.7,N
1545445956.0,286046995.7,N
1545445975.8,286046996.2,N
1545445995.6,286046996.4,N
1545446015.5,286046997.9,N
1545446035.3,286046995.0,Y
1545446055.2,286046998.9,P
1545446075.9,286047000.8,N
1545446095.7,286047000.9,N
1545446115.6,286046998.2,N
1545446135.4,286047000.8,N
1545446155.2,286047002.4,N
1545446175.1,286047001.5,N
1545446176.0,286047001.5,N
1545446195.8,286047002.2,N
1545446215.7,286046999.9,N
1545446235.5,286047002.8,N
1545446255.3,286047000.3,N
1545446275.2,286046998.2,N
1545446295.0,286047000.7,N
1545446295.9,286047000.7,N
1545446315.8,286047001.1,N
1545446335.6,286047000.8,N
1545446355.5,286046998.6,N
1545446375.9,286046998.5,N
1545446395.7,286046999.2,N
1545446415.6,286046999.6,N
1545446435.4,286046994.9,Y
1545446455.2,286046994.9,P
1545446475.1,286046997.7,N
1545446476.0,286046997.7,N
1545446495.8,286046999.5,N
1545446515.7,286046999.2,N
1545446535.5,286046997.4,N
1545446555.3,286046999.4,N
1545446575.2,286046999.4,N
1545446595.0,286046997.2,N
1545446595.9,286046997.2,N
1545446615.7,286046997.8,N
1545446635.6,286046997.6,N
1545446655.4,286046997.0,N
1545446675.3,286046997.4,N
1545446695.1,286046999.6,N
1545446696.0,286046999.6,N
1545446715.8,286046997.0,N
1545446735.7,286046999.4,N
1545446755.5,286046998.5,N
1545446775.4,286046998.5,N
1545446795.2,286047001.1,N
1545446815.0,286046998.8,N
1545446815.9,286046998.8,N
1545446835.8,286046998.7,N
1545446855.6,286046997.2,N
1545446875.5,286046996.8,N
1545446895.3,286046997.6,N
1545446915.1,286046997.0,N
1545446935.9,286046997.5,N
1545446955.7,286046994.9,Y
1545447005.6,286046999.6,E
1545447015.5,286046996.6,N
1545447035.3,286046999.1,P
1545447055.2,286046998.7,N
1545447075.0,286047000.5,N
1545447075.9,286047000.5,N
1545447095.7,286047000.1,N
1545447115.6,286046999.7,N
1545447135.4,286047000.0,N
1545447155.3,286046998.7,N
1545447175.1,286046998.9,N
1545447176.0,286046998.9,N
1545447195.8,286046996.9,N
1545447215.7,286046997.4,N
1545447235.5,286046995.2,Y
1545447255.4,286046997.6,P
1545447275.2,286046997.3,P
1545447295.0,286046997.3,P
1545447295.9,286046997.3,Y
1545447315.8,286047000.7,P
1545447335.6,286047001.2,N
1545447355.4,286046997.0,N
1545447375.3,286046996.9,N
1545447395.1,286046997.1,N
1545447415.6,286046999.1,N
1545447435.4,286046996.5,N
1545447455.3,286046999.3,N
1545447475.1,286046998.3,N
1545447495.9,286046996.5,N
1545447515.7,286046999.4,N
1545447535.5,286046997.0,N
1545447555.5,286046999.5,N
1545447575.3,286046996.6,N
1545447595.2,286046999.4,N
